Telluride, CO

9:32 AM MDT on April 23, 2018 (GMT -0600)
Telluride Regional

Weather History for KTEX - March, 2013

Change the Weather History Date:

Saturday, March 2, 2013

  Actual Average Record
Temperature  
Mean Temperature 34 °F -  
Max Temperature 46 °F 32 °F 55 °F (2009)
Min Temperature 21 °F 12 °F -13 °F (2002)
Degree Days  
Heating Degree Days 32    
Moisture  
Dew Point 17 °F    
Average Humidity 55    
Maximum Humidity 80    
Minimum Humidity 27    
Precipitation  
Precipitation 0.00 in - - ()
Sea Level Pressure  
Sea Level Pressure 30.41 in    
Wind  
Wind Speed 5 mph (SE)    
Max Wind Speed 12 mph    
Max Gust Speed 16 mph    
Visibility 10 miles    
Events      
Averages and records for this station are not official NWS values.
T = Trace of Precipitation, MM = Missing Value Source: NWS Daily Summary

Daily Weather History Graph

Daily Weather History Graph

Search for Another Location

Airport or City:

Astronomy

Mar. 02, 2013 Rise Set
Actual Time 6:41 AM MST 6:06 PM MST
Civil Twilight 6:15 AM MST 6:32 PM MST
Nautical Twilight 5:44 AM MST 7:03 PM MST
Astronomical Twilight 5:14 AM MST 7:33 PM MST
Moon 11:42 PM MST (3/2) 9:17 AM MST (3/2)
Length of Visible Light 12h 17m
Length of Day
11h 25m
Waning Gibbous, 73% of the Moon is Illuminated
Mar 2
Waning Gibbous
Mar 4
Last Quarter
Mar 11
New
Mar 19
First Quarter
Mar 27
Full

Hourly Weather History & Observations

Time (MST) Temp. Windchill Dew Point Humidity Pressure Visibility Wind Dir Wind Speed Gust Speed Precip Events Conditions
12:15 AM 23.0 °F 17.0 °F 15.8 °F 74% 30.46 in 10.0 mi ESE 4.6 mph - N/A   Clear
12:35 AM 23.0 °F 15.8 °F 17.6 °F 80% 30.47 in 10.0 mi ESE 5.8 mph - N/A   Clear
12:55 AM 23.0 °F - 17.6 °F 80% 30.47 in 10.0 mi Calm Calm - N/A   Clear
1:15 AM 21.2 °F - 15.8 °F 80% 30.46 in 10.0 mi Calm Calm - N/A   Clear
1:35 AM 23.0 °F 18.4 °F 17.6 °F 80% 30.46 in 10.0 mi SE 3.5 mph - N/A   Clear
1:55 AM 21.2 °F - 14.0 °F 74% 30.46 in 10.0 mi Calm Calm - N/A   Clear
2:15 AM 23.0 °F 17.0 °F 14.0 °F 68% 30.46 in 10.0 mi SE 4.6 mph - N/A   Clear
2:35 AM 23.0 °F 17.0 °F 15.8 °F 74% 30.46 in 10.0 mi SE 4.6 mph - N/A   Clear
2:55 AM 23.0 °F - 15.8 °F 74% 30.46 in 10.0 mi Calm Calm - N/A   Clear
3:15 AM 23.0 °F 15.8 °F 15.8 °F 74% 30.45 in 10.0 mi ESE 5.8 mph - N/A   Clear
3:35 AM 23.0 °F 14.7 °F 17.6 °F 80% 30.45 in 10.0 mi ESE 6.9 mph - N/A   Clear
3:55 AM 21.2 °F 13.6 °F 14.0 °F 74% 30.45 in 10.0 mi East 5.8 mph - N/A   Clear
4:15 AM 23.0 °F 17.0 °F 15.8 °F 74% 30.45 in 10.0 mi East 4.6 mph - N/A   Clear
4:35 AM 23.0 °F 14.7 °F 15.8 °F 74% 30.45 in 10.0 mi ESE 6.9 mph - N/A   Clear
4:55 AM 23.0 °F 15.8 °F 17.6 °F 80% 30.45 in 10.0 mi ESE 5.8 mph - N/A   Clear
5:15 AM 23.0 °F 13.9 °F 15.8 °F 74% 30.45 in 10.0 mi ESE 8.1 mph - N/A   Clear
5:35 AM 23.0 °F 15.8 °F 14.0 °F 68% 30.46 in 10.0 mi ESE 5.8 mph - N/A   Clear
5:55 AM 21.2 °F 13.6 °F 14.0 °F 74% 30.46 in 10.0 mi ESE 5.8 mph - N/A   Clear
6:15 AM 23.0 °F 15.8 °F 17.6 °F 80% 30.47 in 10.0 mi ESE 5.8 mph - N/A   Clear
6:35 AM 21.2 °F 14.9 °F 15.8 °F 80% 30.47 in 10.0 mi ESE 4.6 mph - N/A   Clear
6:55 AM 23.0 °F 14.7 °F 15.8 °F 74% 30.48 in 10.0 mi SE 6.9 mph - N/A   Clear
7:15 AM 21.2 °F 14.9 °F 14.0 °F 74% 30.48 in 10.0 mi ESE 4.6 mph - N/A   Clear
7:35 AM 23.0 °F 14.7 °F 17.6 °F 80% 30.48 in 10.0 mi SE 6.9 mph - N/A   Clear
7:55 AM 24.8 °F 16.9 °F 15.8 °F 69% 30.48 in 10.0 mi SE 6.9 mph - N/A   Clear
8:15 AM 26.6 °F 19.1 °F 17.6 °F 69% 30.48 in 10.0 mi ESE 6.9 mph - N/A   Clear
8:35 AM 28.4 °F 23.3 °F 17.6 °F 64% 30.49 in 10.0 mi East 4.6 mph - N/A   Clear
8:55 AM 30.2 °F 26.7 °F 17.6 °F 60% 30.49 in 10.0 mi ESE 3.5 mph - N/A   Clear
9:15 AM 32.0 °F 28.7 °F 17.6 °F 55% 30.48 in 10.0 mi East 3.5 mph - N/A   Clear
9:35 AM 32.0 °F - 19.4 °F 60% 30.48 in 10.0 mi Calm Calm - N/A   Clear
9:55 AM 33.8 °F - 19.4 °F 56% 30.48 in 10.0 mi Calm Calm - N/A   Clear
10:15 AM 33.8 °F - 19.4 °F 56% 30.48 in 10.0 mi Calm Calm - N/A   Clear
10:35 AM 35.6 °F - 19.4 °F 52% 30.48 in 10.0 mi Calm Calm - N/A   Clear
10:55 AM 37.4 °F - 14.0 °F 38% 30.47 in 10.0 mi Calm Calm - N/A   Clear
11:35 AM 42.8 °F - 14.0 °F 31% 30.47 in 10.0 mi Calm Calm - N/A   Clear
11:55 AM 44.6 °F - 14.0 °F 29% 30.46 in 10.0 mi Calm Calm - N/A   Clear
12:15 PM 44.6 °F - 15.8 °F 31% 30.45 in 10.0 mi Calm Calm - N/A   Clear
12:35 PM 46.4 °F 43.5 °F 14.0 °F 27% 30.44 in 10.0 mi West 5.8 mph - N/A   Clear
12:55 PM 46.4 °F 42.9 °F 14.0 °F 27% 30.43 in 10.0 mi West 6.9 mph - N/A   Clear
1:15 PM 46.4 °F 42.9 °F 14.0 °F 27% 30.41 in 10.0 mi West 6.9 mph - N/A   Clear
1:35 PM 46.4 °F 42.4 °F 14.0 °F 27% 30.40 in 10.0 mi WSW 8.1 mph - N/A   Clear
1:55 PM 46.4 °F 41.1 °F 15.8 °F 29% 30.39 in 10.0 mi West 11.5 mph - N/A   Clear
2:15 PM 46.4 °F 41.1 °F 15.8 °F 29% 30.39 in 10.0 mi WSW 11.5 mph 16.1 mph N/A   Clear
2:35 PM 46.4 °F 41.1 °F 14.0 °F 27% 30.38 in 10.0 mi WSW 11.5 mph - N/A   Clear
2:55 PM 46.4 °F 42.4 °F 15.8 °F 29% 30.38 in 10.0 mi WSW 8.1 mph - N/A   Clear
3:15 PM 46.4 °F 43.5 °F 15.8 °F 29% 30.37 in 10.0 mi SW 5.8 mph - N/A   Clear
3:35 PM 46.4 °F 43.5 °F 15.8 °F 29% 30.37 in 10.0 mi SSW 5.8 mph - N/A   Clear
3:55 PM 46.4 °F 44.3 °F 15.8 °F 29% 30.37 in 10.0 mi SSW 4.6 mph - N/A   Clear
4:15 PM 46.4 °F 43.5 °F 14.0 °F 27% 30.36 in 10.0 mi SSW 5.8 mph - N/A   Clear
4:35 PM 44.6 °F - 17.6 °F 34% 30.36 in 10.0 mi Calm Calm - N/A   Clear
4:55 PM 46.4 °F 42.4 °F 15.8 °F 29% 30.35 in 10.0 mi West 8.1 mph - N/A   Clear
5:15 PM 46.4 °F 44.3 °F 15.8 °F 29% 30.35 in 10.0 mi West 4.6 mph - N/A   Clear
5:35 PM 44.6 °F 40.7 °F 15.8 °F 31% 30.35 in 10.0 mi West 6.9 mph - N/A   Clear
5:55 PM 42.8 °F 41.1 °F 15.8 °F 34% 30.35 in 10.0 mi West 3.5 mph - N/A   Clear
6:15 PM 42.8 °F - 17.6 °F 36% 30.35 in 10.0 mi Calm Calm - N/A   Clear
6:35 PM 37.4 °F 32.1 °F 21.2 °F 52% 30.35 in 10.0 mi East 6.9 mph - N/A   Clear
6:55 PM 37.4 °F - 21.2 °F 52% 30.35 in 10.0 mi Calm Calm - N/A   Clear
7:15 PM 35.6 °F 31.7 °F 21.2 °F 56% 30.36 in 10.0 mi ESE 4.6 mph - N/A   Clear
7:35 PM 35.6 °F 29.9 °F 21.2 °F 56% 30.35 in 10.0 mi East 6.9 mph - N/A   Clear
7:55 PM 35.6 °F 28.6 °F 21.2 °F 56% 30.35 in 10.0 mi SE 9.2 mph - N/A   Clear
8:15 PM 33.8 °F 29.6 °F 21.2 °F 60% 30.35 in 10.0 mi ESE 4.6 mph - N/A   Clear
8:35 PM 33.8 °F 28.6 °F 21.2 °F 60% 30.35 in 10.0 mi SE 5.8 mph - N/A   Clear
8:55 PM 33.8 °F 27.7 °F 19.4 °F 56% 30.35 in 10.0 mi SE 6.9 mph - N/A   Clear
9:15 PM 32.0 °F 24.8 °F 19.4 °F 60% 30.35 in 10.0 mi SE 8.1 mph - N/A   Clear
9:35 PM 33.8 °F 29.6 °F 19.4 °F 56% 30.35 in 10.0 mi East 4.6 mph - N/A   Clear
9:55 PM 32.0 °F 25.6 °F 19.4 °F 60% 30.34 in 10.0 mi SE 6.9 mph - N/A   Clear
10:15 PM 32.0 °F 25.6 °F 19.4 °F 60% 30.33 in 10.0 mi ESE 6.9 mph - N/A   Clear
10:35 PM 32.0 °F 25.6 °F 19.4 °F 60% 30.33 in 10.0 mi SE 6.9 mph - N/A   Clear
10:55 PM 32.0 °F 26.4 °F 19.4 °F 60% 30.32 in 10.0 mi SE 5.8 mph - N/A   Clear
11:15 PM 32.0 °F 25.6 °F 19.4 °F 60% 30.31 in 10.0 mi SE 6.9 mph - N/A   Clear
11:35 PM 32.0 °F 26.4 °F 17.6 °F 55% 30.30 in 10.0 mi SE 5.8 mph - N/A   Clear
11:55 PM 33.8 °F 29.6 °F 17.6 °F 52% 30.29 in 10.0 mi SE 4.6 mph - N/A   Clear